Location: Moscow
(44.4414°N, 72.7154°W)
Time: 21:51:08
(UTC+00:00)

ARIANE 6 FM1 Upper Stage - Visible Passes

Search period start: 04 October 2024 00:00
Search period end: 14 October 2024 00:00
Orbit: 564 x 594 km, 62.0° (Epoch: 04 October)

Date Brightness Start Highest point End Pass type
(mag) Time Alt. Az. Time Alt. Az. Time Alt. Az.
10 Oct 5.3 00:36:29 10° N 00:37:18 11° NNE 00:37:18 11° NNE visible
11 Oct 5.2 00:40:19 10° N 00:41:26 13° N 00:41:26 13° N visible
12 Oct 5.2 00:44:17 10° NNW 00:45:35 15° N 00:45:35 15° N visible
13 Oct 5.1 00:48:20 10° NNW 00:49:44 17° N 00:49:44 17° N visible
13 Oct 5.1 23:15:07 10° N 23:15:46 10° NNE 23:16:24 10° NNE visible
